Location: Newark
(13.8625°N, 100.5144°E)
Time: 17:40:17
(UTC+00:00)

LightSail 2 - Pass Details

Date: 18 May 2021
Orbit: 685 x 700 km, 24.0° (Epoch: 11 June)

Event Time Altitude Azimuth Distance (km) Brightness Sun altitude
Rises 12:15:25 0° 234° (SW) 3,048 8.9 -9.2°
Reaches altitude 10° 12:17:54 10° 228° (SW) 2,134 8.0 -9.8°
Maximum altitude 12:22:43 46° 156° (SSE) 928 5.4 -10.8°
Enters shadow 12:27:08 12° 85° (E) 1,992 6.9 -11.8°
